This is the latest recevied weather packets stored in our database for station/object W4ZHA. If no packets are shown the sender has not sent any weather packets the latest 10 day(s).
| Time | Temp. | Humidity | Pressure | Rain* | Wind** | Luminosity | Snow |
|---|---|---|---|---|---|---|---|
| 1787872375 | 30.56° C | 57% | 1014.1 hPa | 0 mm | - | 48 W/m² | - |
| 1787872075 | 31.11° C | 55% | 1014.1 hPa | 0 mm | - | 51 W/m² | - |
| 1787871769 | 31.11° C | 55% | 1013.8 hPa | 0 mm | - | 55 W/m² | - |
| 1787871465 | 31.67° C | 54% | 1014.1 hPa | 0 mm | - | 59 W/m² | - |
| 1787871160 | 32.22° C | 53% | 1013.8 hPa | 0 mm | - | 94 W/m² | - |
| 1787870859 | 32.22° C | 52% | 1013.8 hPa | 0 mm | - | 217 W/m² | - |
| 1787870555 | 31.67° C | 53% | 1013.8 hPa | 0 mm | - | 247 W/m² | - |
| 1787870250 | 31.67° C | 54% | 1013.8 hPa | 0 mm | - | 229 W/m² | - |
| 1787869945 | 31.67° C | 54% | 1013.8 hPa | 0 mm | - | 256 W/m² | - |
| 1787869644 | 32.22° C | 53% | 1013.8 hPa | 0 mm | - | 254 W/m² | - |
| 1787869339 | 32.78° C | 47% | 1013.4 hPa | 0 mm | - | 246 W/m² | - |
| 1787869038 | 32.78° C | 48% | 1013.8 hPa | 0 mm | - | 258 W/m² | - |
| 1787868737 | 33.33° C | 47% | 1013.4 hPa | 0 mm | - | 277 W/m² | - |
| 1787868436 | 33.33° C | 47% | 1013.4 hPa | 0 mm | - | 309 W/m² | - |
| 1787868135 | 32.78° C | 45% | 1013.4 hPa | 0 mm | - | 315 W/m² | - |
| 1787867831 | 32.78° C | 45% | 1013.4 hPa | 0 mm | - | 338 W/m² | - |
| 1787867526 | 31.67° C | 49% | 1013.4 hPa | 0 mm | - | 346 W/m² | - |
| 1787867221 | 32.22° C | 51% | 1013.4 hPa | 0 mm | - | 89 W/m² | - |
| 1787866916 | 32.78° C | 45% | 1013.8 hPa | 0 mm | - | 97 W/m² | - |
| 1787866612 | 33.33° C | 47% | 1013.8 hPa | 0 mm | - | 372 W/m² | - |
| 1787866309 | 32.78° C | 45% | 1013.4 hPa | 0 mm | - | 111 W/m² | - |
| 1787866005 | 32.78° C | 47% | 1013.4 hPa | 0 mm | - | 385 W/m² | - |
| 1787865701 | 33.33° C | 47% | 1013.8 hPa | 0 mm | - | 389 W/m² | - |
| 1787865400 | 33.33° C | 47% | 1013.8 hPa | 0 mm | - | 177 W/m² | - |
| 1787865095 | 33.89° C | 47% | 1013.4 hPa | 0 mm | - | 392 W/m² | - |
* Rain latest hour (hover to see other rain measurements)
** Current wind speed in m/s (hover to see current wind gust speed)